Time,TemperatureF,DewpointF,PressureIn,WindDirection,WindDirectionDegrees,WindSpeedMPH,WindSpeedGustMPH,Humidity,HourlyPrecipIn,Conditions,Clouds,dailyrainin,SoftwareType,DateUTC
2013-03-17 00:00:00,47.0,40.5,29.71,WSW,248,2.5,10.5,78,0.00,,,0.00,WUHU216HW,2013-03-17 04:00:00,
2013-03-17 00:05:00,46.6,39.8,29.71,West,270,1.8,4.3,77,0.00,,,0.00,WUHU216HW,2013-03-17 04:05:00,
2013-03-17 00:10:00,46.8,40.3,29.71,NNW,338,2.9,6.9,78,0.00,,,0.00,WUHU216HW,2013-03-17 04:10:00,
2013-03-17 00:15:00,47.0,40.5,29.71,NNW,338,2.5,6.9,78,0.00,,,0.00,WUHU216HW,2013-03-17 04:15:00,
2013-03-17 00:20:00,47.0,40.1,29.71,NNW,338,1.6,6.9,77,0.00,,,0.00,WUHU216HW,2013-03-17 04:20:00,
2013-03-17 00:25:00,46.6,40.1,29.71,NNW,338,2.5,6.9,78,0.00,,,0.00,WUHU216HW,2013-03-17 04:25:00,
2013-03-17 00:30:00,46.4,40.0,29.71,NNW,338,1.6,4.7,78,0.00,,,0.00,WUHU216HW,2013-03-17 04:30:00,
2013-03-17 00:35:00,46.3,39.5,29.71,West,270,2.5,4.7,77,0.00,,,0.00,WUHU216HW,2013-03-17 04:35:00,
2013-03-17 00:40:00,46.1,39.3,29.71,WNW,293,0.4,3.6,77,0.00,,,0.00,WUHU216HW,2013-03-17 04:40:00,
2013-03-17 00:45:00,45.7,39.0,29.71,NE,45,0.0,3.6,77,0.00,,,0.00,WUHU216HW,2013-03-17 04:45:00,
2013-03-17 00:50:00,45.2,38.4,29.72,WNW,293,0.7,3.4,77,0.00,,,0.00,WUHU216HW,2013-03-17 04:50:00,
2013-03-17 00:55:00,44.6,38.5,29.72,East,90,0.0,2.2,79,0.00,,,0.00,WUHU216HW,2013-03-17 04:55:00,
2013-03-17 01:00:00,44.3,38.2,29.72,NE,45,0.7,2.2,79,0.00,,,0.00,WUHU216HW,2013-03-17 05:00:00,
2013-03-17 01:05:00,44.1,38.3,29.72,ENE,68,0.2,2.9,80,0.00,,,0.00,WUHU216HW,2013-03-17 05:05:00,
2013-03-17 01:10:00,44.3,38.5,29.72,East,90,0.4,2.9,80,0.00,,,0.00,WUHU216HW,2013-03-17 05:10:00,
2013-03-17 01:15:00,43.9,38.2,29.72,East,90,0.4,2.2,80,0.00,,,0.00,WUHU216HW,2013-03-17 05:15:00,
2013-03-17 01:20:00,43.7,38.3,29.72,East,90,0.0,1.1,81,0.00,,,0.00,WUHU216HW,2013-03-17 05:20:00,
2013-03-17 01:25:00,43.6,38.4,29.72,SE,135,0.0,1.3,82,0.00,,,0.00,WUHU216HW,2013-03-17 05:25:00,
2013-03-17 01:30:00,43.6,38.1,29.72,East,90,0.9,1.6,81,0.00,,,0.00,WUHU216HW,2013-03-17 05:30:00,
2013-03-17 01:35:00,43.2,37.7,29.72,SSE,158,0.0,1.6,81,0.00,,,0.00,WUHU216HW,2013-03-17 05:35:00,
2013-03-17 01:40:00,42.8,37.7,29.72,ENE,68,0.0,1.6,82,0.00,,,0.00,WUHU216HW,2013-03-17 05:40:00,
2013-03-17 01:45:00,42.5,37.6,29.72,ESE,113,0.0,1.6,83,0.00,,,0.00,WUHU216HW,2013-03-17 05:45:00,
2013-03-17 01:50:00,42.3,37.2,29.73,East,90,0.4,0.9,82,0.00,,,0.00,WUHU216HW,2013-03-17 05:50:00,
2013-03-17 01:55:00,42.3,37.4,29.73,ENE,68,1.1,1.6,83,0.00,,,0.00,WUHU216HW,2013-03-17 05:55:00,
2013-03-17 02:00:00,42.1,37.3,29.73,NNE,23,0.7,1.6,83,0.00,,,0.00,WUHU216HW,2013-03-17 06:00:00,
2013-03-17 02:05:00,42.7,37.8,29.72,NNW,338,4.0,4.7,83,0.00,,,0.00,WUHU216HW,2013-03-17 06:05:00,
2013-03-17 02:10:00,43.4,37.9,29.73,NNW,338,3.6,4.7,81,0.00,,,0.00,WUHU216HW,2013-03-17 06:10:00,
2013-03-17 02:15:00,43.9,37.8,29.72,NNW,338,4.0,6.0,79,0.00,,,0.00,WUHU216HW,2013-03-17 06:15:00,
2013-03-17 02:20:00,44.1,37.7,29.73,NW,315,4.9,6.0,78,0.00,,,0.00,WUHU216HW,2013-03-17 06:20:00,
2013-03-17 02:25:00,44.1,37.7,29.73,NNW,338,1.8,5.1,78,0.00,,,0.00,WUHU216HW,2013-03-17 06:25:00,
2013-03-17 02:30:00,44.1,37.7,29.73,NNW,338,1.8,5.1,78,0.00,,,0.00,WUHU216HW,2013-03-17 06:30:00,
2013-03-17 02:35:00,43.9,37.2,29.73,NW,315,1.6,4.0,77,0.00,,,0.00,WUHU216HW,2013-03-17 06:35:00,
2013-03-17 02:40:00,43.9,37.2,29.73,NNW,338,2.5,4.0,77,0.00,,,0.00,WUHU216HW,2013-03-17 06:40:00,
2013-03-17 02:45:00,43.6,37.2,29.73,NNW,338,1.6,4.0,78,0.00,,,0.00,WUHU216HW,2013-03-17 06:45:00,
2013-03-17 02:50:00,43.7,37.4,29.72,North,0,1.8,4.0,78,0.00,,,0.00,WUHU216HW,2013-03-17 06:50:00,
2013-03-17 02:55:00,43.7,37.4,29.72,NNW,338,2.5,4.9,78,0.00,,,0.00,WUHU216HW,2013-03-17 06:55:00,
2013-03-17 03:00:00,43.6,37.2,29.72,NNW,338,6.3,6.3,78,0.00,,,0.00,WUHU216HW,2013-03-17 07:00:00,
2013-03-17 03:05:00,43.7,37.0,29.73,NW,315,2.5,6.3,77,0.00,,,0.00,WUHU216HW,2013-03-17 07:05:00,
2013-03-17 03:10:00,43.7,37.0,29.73,ENE,68,1.8,6.3,77,0.00,,,0.00,WUHU216HW,2013-03-17 07:10:00,
2013-03-17 03:15:00,42.8,36.7,29.72,SW,225,0.0,4.7,79,0.00,,,0.00,WUHU216HW,2013-03-17 07:15:00,
2013-03-17 03:20:00,42.8,36.7,29.72,WNW,293,2.5,6.0,79,0.00,,,0.00,WUHU216HW,2013-03-17 07:20:00,
2013-03-17 03:25:00,43.0,36.9,29.73,SW,225,0.4,6.0,79,0.00,,,0.00,WUHU216HW,2013-03-17 07:25:00,
2013-03-17 03:30:00,42.8,36.5,29.73,West,270,1.1,7.2,78,0.00,,,0.00,WUHU216HW,2013-03-17 07:30:00,
2013-03-17 03:35:00,43.2,36.8,29.73,NW,315,2.5,7.2,78,0.00,,,0.00,WUHU216HW,2013-03-17 07:35:00,
2013-03-17 03:40:00,43.2,36.8,29.72,NNW,338,0.7,3.6,78,0.00,,,0.00,WUHU216HW,2013-03-17 07:40:00,
2013-03-17 03:45:00,42.5,36.7,29.72,NNW,338,0.9,3.6,80,0.00,,,0.00,WUHU216HW,2013-03-17 07:45:00,
2013-03-17 03:50:00,41.9,36.2,29.72,NNW,338,0.0,2.5,80,0.00,,,0.00,WUHU216HW,2013-03-17 07:50:00,
2013-03-17 03:55:00,41.8,36.3,29.71,SE,135,1.1,2.5,81,0.00,,,0.00,WUHU216HW,2013-03-17 07:55:00,
2013-03-17 04:00:00,41.2,35.7,29.72,East,90,0.0,1.8,81,0.00,,,0.00,WUHU216HW,2013-03-17 08:00:00,
2013-03-17 04:05:00,40.9,35.5,29.72,North,0,0.0,1.3,81,0.00,,,0.00,WUHU216HW,2013-03-17 08:05:00,
2013-03-17 04:10:00,40.7,35.6,29.72,ENE,68,1.6,2.2,82,0.00,,,0.00,WUHU216HW,2013-03-17 08:10:00,
2013-03-17 04:15:00,40.7,35.6,29.72,NNW,338,0.9,5.4,82,0.00,,,0.00,WUHU216HW,2013-03-17 08:15:00,
2013-03-17 04:20:00,41.2,35.5,29.72,NNW,338,4.0,6.9,80,0.00,,,0.00,WUHU216HW,2013-03-17 08:20:00,
2013-03-17 04:25:00,42.3,36.2,29.72,ENE,68,1.1,6.9,79,0.00,,,0.00,WUHU216HW,2013-03-17 08:25:00,
2013-03-17 04:30:00,42.3,36.2,29.72,WNW,293,0.0,5.8,79,0.00,,,0.00,WUHU216HW,2013-03-17 08:30:00,
2013-03-17 04:35:00,42.1,36.0,29.72,SSE,158,0.0,1.3,79,0.00,,,0.00,WUHU216HW,2013-03-17 08:35:00,
2013-03-17 04:40:00,41.8,35.6,29.72,SSE,158,0.0,1.3,79,0.00,,,0.00,WUHU216HW,2013-03-17 08:40:00,
2013-03-17 04:45:00,41.4,35.6,29.72,NNE,23,0.7,1.8,80,0.00,,,0.00,WUHU216HW,2013-03-17 08:45:00,
2013-03-17 04:50:00,41.0,35.3,29.73,South,180,0.4,1.8,80,0.00,,,0.00,WUHU216HW,2013-03-17 08:50:00,
2013-03-17 04:55:00,40.9,35.5,29.72,SSE,158,0.0,1.3,81,0.00,,,0.00,WUHU216HW,2013-03-17 08:55:00,
2013-03-17 05:00:00,40.9,35.5,29.72,SSE,158,0.0,0.9,81,0.00,,,0.00,WUHU216HW,2013-03-17 09:00:00,
2013-03-17 05:05:00,40.7,35.3,29.72,SSE,158,0.0,0.0,81,0.00,,,0.00,WUHU216HW,2013-03-17 09:05:00,
2013-03-17 05:10:00,40.5,35.1,29.73,North,0,0.4,0.7,81,0.00,,,0.00,WUHU216HW,2013-03-17 09:10:00,
2013-03-17 05:15:00,40.3,34.9,29.73,WSW,248,0.0,2.2,81,0.00,,,0.00,WUHU216HW,2013-03-17 09:15:00,
2013-03-17 05:20:00,40.3,34.9,29.72,SSE,158,0.4,2.2,81,0.00,,,0.00,WUHU216HW,2013-03-17 09:20:00,
2013-03-17 05:25:00,40.0,34.6,29.73,SSE,158,0.9,1.1,81,0.00,,,0.00,WUHU216HW,2013-03-17 09:25:00,
2013-03-17 05:30:00,40.0,34.9,29.73,SW,225,1.8,3.6,82,0.00,,,0.00,WUHU216HW,2013-03-17 09:30:00,
2013-03-17 05:35:00,40.0,34.9,29.74,NNW,338,1.1,3.6,82,0.00,,,0.00,WUHU216HW,2013-03-17 09:35:00,
2013-03-17 05:40:00,40.0,34.9,29.73,NW,315,1.6,2.0,82,0.00,,,0.00,WUHU216HW,2013-03-17 09:40:00,
2013-03-17 05:45:00,40.0,34.9,29.73,WNW,293,0.0,1.8,82,0.00,,,0.00,WUHU216HW,2013-03-17 09:45:00,
2013-03-17 05:50:00,40.0,34.9,29.74,West,270,0.4,1.8,82,0.00,,,0.00,WUHU216HW,2013-03-17 09:50:00,
2013-03-17 05:55:00,40.1,35.1,29.74,NW,315,0.0,2.2,82,0.00,,,0.00,WUHU216HW,2013-03-17 09:55:00,
2013-03-17 06:00:00,40.0,34.9,29.75,NW,315,0.0,2.2,82,0.00,,,0.00,WUHU216HW,2013-03-17 10:00:00,
2013-03-17 06:05:00,40.0,34.9,29.75,South,180,0.0,0.4,82,0.00,,,0.00,WUHU216HW,2013-03-17 10:05:00,
2013-03-17 06:10:00,40.0,34.9,29.75,South,180,0.0,0.4,82,0.00,,,0.00,WUHU216HW,2013-03-17 10:10:00,
2013-03-17 06:15:00,40.0,34.9,29.75,NNW,338,0.4,0.7,82,0.00,,,0.00,WUHU216HW,2013-03-17 10:15:00,
2013-03-17 06:20:00,40.0,34.9,29.76,NW,315,0.4,1.1,82,0.00,,,0.00,WUHU216HW,2013-03-17 10:20:00,
2013-03-17 06:25:00,40.0,35.2,29.76,NW,315,1.1,1.8,83,0.00,,,0.00,WUHU216HW,2013-03-17 10:25:00,
2013-03-17 06:30:00,40.0,35.2,29.76,NW,315,0.4,1.8,83,0.00,,,0.00,WUHU216HW,2013-03-17 10:30:00,
2013-03-17 06:35:00,40.0,35.5,29.76,WSW,248,0.4,1.1,84,0.00,,,0.00,WUHU216HW,2013-03-17 10:35:00,
2013-03-17 06:40:00,40.0,35.2,29.76,SSW,203,0.0,0.9,83,0.00,,,0.00,WUHU216HW,2013-03-17 10:40:00,
2013-03-17 06:45:00,39.8,35.0,29.76,South,180,0.0,0.7,83,0.00,,,0.00,WUHU216HW,2013-03-17 10:45:00,
2013-03-17 06:50:00,39.8,35.0,29.76,South,180,0.0,0.0,83,0.00,,,0.00,WUHU216HW,2013-03-17 10:50:00,
2013-03-17 06:55:00,39.8,35.3,29.77,SSW,203,0.0,0.0,84,0.00,,,0.00,WUHU216HW,2013-03-17 10:55:00,
2013-03-17 07:00:00,39.8,35.3,29.76,SSW,203,0.0,0.0,84,0.00,,,0.00,WUHU216HW,2013-03-17 11:00:00,
2013-03-17 07:05:00,39.8,35.3,29.76,SSW,203,0.0,0.0,84,0.00,,,0.00,WUHU216HW,2013-03-17 11:05:00,
2013-03-17 07:10:00,39.8,35.3,29.77,SSE,158,0.4,1.1,84,0.00,,,0.00,WUHU216HW,2013-03-17 11:10:00,
2013-03-17 07:15:00,39.8,35.3,29.78,SSE,158,0.0,1.1,84,0.00,,,0.00,WUHU216HW,2013-03-17 11:15:00,
2013-03-17 07:20:00,40.0,35.5,29.78,SSE,158,0.0,0.7,84,0.00,,,0.00,WUHU216HW,2013-03-17 11:20:00,
2013-03-17 07:25:00,40.0,35.5,29.78,SSE,158,0.0,0.0,84,0.00,,,0.00,WUHU216HW,2013-03-17 11:25:00,
2013-03-17 07:30:00,40.0,35.5,29.78,WNW,293,0.7,0.7,84,0.00,,,0.00,WUHU216HW,2013-03-17 11:30:00,
2013-03-17 07:35:00,39.8,35.3,29.78,NW,315,0.0,0.9,84,0.00,,,0.00,WUHU216HW,2013-03-17 11:35:00,
2013-03-17 07:40:00,39.8,35.3,29.78,NW,315,0.0,0.9,84,0.00,,,0.00,WUHU216HW,2013-03-17 11:40:00,
2013-03-17 07:45:00,39.8,35.3,29.78,NW,315,0.0,0.0,84,0.00,,,0.00,WUHU216HW,2013-03-17 11:45:00,
2013-03-17 07:50:00,39.6,35.2,29.78,NW,315,0.0,0.0,84,0.00,,,0.00,WUHU216HW,2013-03-17 11:50:00,
2013-03-17 07:55:00,39.8,35.3,29.79,West,270,0.0,0.0,84,0.00,,,0.00,WUHU216HW,2013-03-17 11:55:00,
2013-03-17 08:00:00,39.8,35.3,29.79,West,270,0.0,0.0,84,0.00,,,0.00,WUHU216HW,2013-03-17 12:00:00,
2013-03-17 08:05:00,40.0,35.5,29.79,West,270,0.0,0.0,84,0.00,,,0.00,WUHU216HW,2013-03-17 12:05:00,
2013-03-17 08:10:00,40.0,35.5,29.80,West,270,0.0,0.0,84,0.00,,,0.00,WUHU216HW,2013-03-17 12:10:00,
2013-03-17 08:15:00,40.0,35.5,29.81,West,270,0.0,0.0,84,0.00,,,0.00,WUHU216HW,2013-03-17 12:15:00,
2013-03-17 08:20:00,40.1,35.6,29.82,West,270,0.4,0.7,84,0.00,,,0.00,WUHU216HW,2013-03-17 12:20:00,
2013-03-17 08:25:00,40.1,35.6,29.84,WSW,248,1.3,2.0,84,0.00,,,0.00,WUHU216HW,2013-03-17 12:25:00,
2013-03-17 08:30:00,40.3,35.8,29.84,WSW,248,0.0,2.0,84,0.00,,,0.00,WUHU216HW,2013-03-17 12:30:00,
2013-03-17 08:35:00,40.3,36.1,29.84,ESE,113,0.0,1.6,85,0.00,,,0.00,WUHU216HW,2013-03-17 12:35:00,
2013-03-17 08:40:00,40.3,36.1,29.84,ESE,113,0.0,1.1,85,0.00,,,0.00,WUHU216HW,2013-03-17 12:40:00,
2013-03-17 08:45:00,40.5,36.0,29.84,ESE,113,0.4,0.7,84,0.00,,,0.00,WUHU216HW,2013-03-17 12:45:00,
2013-03-17 08:50:00,40.5,36.3,29.83,ESE,113,0.0,0.7,85,0.00,,,0.00,WUHU216HW,2013-03-17 12:50:00,
2013-03-17 08:55:00,40.7,36.5,29.84,ESE,113,0.0,0.7,85,0.00,,,0.00,WUHU216HW,2013-03-17 12:55:00,
2013-03-17 09:00:00,40.9,36.9,29.84,North,0,0.0,1.1,86,0.00,,,0.00,WUHU216HW,2013-03-17 13:00:00,
2013-03-17 09:05:00,41.2,37.0,29.84,NNW,338,0.0,1.6,85,0.00,,,0.00,WUHU216HW,2013-03-17 13:05:00,
2013-03-17 09:10:00,41.4,37.2,29.84,NW,315,1.8,1.8,85,0.00,,,0.00,WUHU216HW,2013-03-17 13:10:00,
2013-03-17 09:15:00,41.8,37.5,29.84,WSW,248,0.7,2.5,85,0.00,,,0.00,WUHU216HW,2013-03-17 13:15:00,
2013-03-17 09:20:00,42.1,37.9,29.84,WSW,248,0.0,2.5,85,0.00,,,0.00,WUHU216HW,2013-03-17 13:20:00,
2013-03-17 09:25:00,42.1,37.9,29.84,SSE,158,0.7,0.7,85,0.00,,,0.00,WUHU216HW,2013-03-17 13:25:00,
2013-03-17 09:30:00,41.9,37.5,29.84,SSE,158,0.0,0.9,84,0.00,,,0.00,WUHU216HW,2013-03-17 13:30:00,
2013-03-17 09:35:00,41.8,37.5,29.84,SSE,158,0.0,0.9,85,0.00,,,0.00,WUHU216HW,2013-03-17 13:35:00,
2013-03-17 09:40:00,41.8,37.5,29.84,South,180,1.1,1.1,85,0.00,,,0.00,WUHU216HW,2013-03-17 13:40:00,
2013-03-17 09:45:00,41.9,37.7,29.84,SSE,158,0.7,1.1,85,0.00,,,0.00,WUHU216HW,2013-03-17 13:45:00,
2013-03-17 09:50:00,41.9,37.7,29.84,SSE,158,1.1,1.1,85,0.00,,,0.00,WUHU216HW,2013-03-17 13:50:00,
2013-03-17 09:55:00,41.8,37.8,29.84,SSE,158,0.9,1.3,86,0.00,,,0.00,WUHU216HW,2013-03-17 13:55:00,
2013-03-17 10:00:00,41.8,37.5,29.84,SW,225,0.4,1.3,85,0.00,,,0.00,WUHU216HW,2013-03-17 14:00:00,
2013-03-17 10:05:00,41.8,37.8,29.84,SSE,158,0.2,0.9,86,0.00,,,0.00,WUHU216HW,2013-03-17 14:05:00,
2013-03-17 10:10:00,41.8,37.8,29.84,SE,135,0.0,1.1,86,0.00,,,0.00,WUHU216HW,2013-03-17 14:10:00,
2013-03-17 10:15:00,41.6,37.6,29.84,SSE,158,0.2,1.1,86,0.00,,,0.00,WUHU216HW,2013-03-17 14:15:00,
2013-03-17 10:20:00,41.4,37.4,29.84,SSW,203,0.4,1.1,86,0.01,,,0.01,WUHU216HW,2013-03-17 14:20:00,
2013-03-17 10:25:00,41.4,37.4,29.85,SSW,203,0.0,1.1,86,0.01,,,0.01,WUHU216HW,2013-03-17 14:25:00,
2013-03-17 10:30:00,41.4,37.4,29.86,SW,225,0.4,0.4,86,0.01,,,0.01,WUHU216HW,2013-03-17 14:30:00,
2013-03-17 10:35:00,41.4,37.8,29.86,SSE,158,0.7,0.9,87,0.02,,,0.02,WUHU216HW,2013-03-17 14:35:00,
2013-03-17 10:40:00,41.4,37.4,29.86,WSW,248,0.0,1.1,86,0.02,,,0.02,WUHU216HW,2013-03-17 14:40:00,
2013-03-17 10:45:00,41.0,37.1,29.87,WSW,248,0.4,1.1,86,0.02,,,0.02,WUHU216HW,2013-03-17 14:45:00,
2013-03-17 10:50:00,41.2,37.6,29.86,WSW,248,0.0,0.7,87,0.02,,,0.02,WUHU216HW,2013-03-17 14:50:00,
2013-03-17 10:55:00,41.2,37.6,29.86,WSW,248,0.0,0.4,87,0.02,,,0.02,WUHU216HW,2013-03-17 14:55:00,
2013-03-17 11:00:00,41.2,37.6,29.86,SW,225,0.0,0.4,87,0.02,,,0.02,WUHU216HW,2013-03-17 15:00:00,
2013-03-17 11:05:00,41.0,37.5,29.86,SW,225,0.0,0.4,87,0.02,,,0.02,WUHU216HW,2013-03-17 15:05:00,
2013-03-17 11:10:00,41.0,37.5,29.86,SSW,203,1.1,1.1,87,0.02,,,0.02,WUHU216HW,2013-03-17 15:10:00,
2013-03-17 11:15:00,41.2,37.6,29.86,South,180,0.7,1.1,87,0.02,,,0.02,WUHU216HW,2013-03-17 15:15:00,
2013-03-17 11:20:00,41.2,37.6,29.86,South,180,0.0,1.1,87,0.01,,,0.02,WUHU216HW,2013-03-17 15:20:00,
2013-03-17 11:25:00,41.4,37.8,29.87,WSW,248,0.0,0.4,87,0.01,,,0.02,WUHU216HW,2013-03-17 15:25:00,
2013-03-17 11:30:00,41.4,37.8,29.86,WSW,248,0.0,0.4,87,0.01,,,0.02,WUHU216HW,2013-03-17 15:30:00,
2013-03-17 11:35:00,41.2,37.6,29.86,SSE,158,0.4,0.9,87,0.00,,,0.02,WUHU216HW,2013-03-17 15:35:00,
2013-03-17 11:40:00,41.0,37.5,29.86,SSE,158,0.4,0.9,87,0.00,,,0.02,WUHU216HW,2013-03-17 15:40:00,
2013-03-17 11:45:00,41.4,37.8,29.86,SSW,203,0.0,0.7,87,0.00,,,0.02,WUHU216HW,2013-03-17 15:45:00,
2013-03-17 11:50:00,41.4,37.8,29.86,South,180,0.0,0.4,87,0.00,,,0.02,WUHU216HW,2013-03-17 15:50:00,
2013-03-17 11:55:00,41.8,38.2,29.86,South,180,0.9,0.9,87,0.00,,,0.02,WUHU216HW,2013-03-17 15:55:00,
2013-03-17 12:00:00,41.8,38.2,29.86,South,180,0.2,0.9,87,0.00,,,0.02,WUHU216HW,2013-03-17 16:00:00,
2013-03-17 12:05:00,41.8,37.8,29.86,South,180,0.0,0.9,86,0.00,,,0.02,WUHU216HW,2013-03-17 16:05:00,
2013-03-17 12:10:00,41.9,38.0,29.86,South,180,0.0,0.4,86,0.00,,,0.02,WUHU216HW,2013-03-17 16:10:00,
2013-03-17 12:15:00,41.9,38.4,29.86,South,180,0.0,0.0,87,0.00,,,0.02,WUHU216HW,2013-03-17 16:15:00,
2013-03-17 12:20:00,42.1,38.2,29.86,South,180,0.0,0.0,86,0.00,,,0.02,WUHU216HW,2013-03-17 16:20:00,
2013-03-17 12:25:00,42.3,38.3,29.86,SW,225,0.0,0.4,86,0.00,,,0.02,WUHU216HW,2013-03-17 16:25:00,
2013-03-17 12:30:00,42.5,38.5,29.86,SW,225,0.4,0.7,86,0.00,,,0.02,WUHU216HW,2013-03-17 16:30:00,
2013-03-17 12:35:00,42.7,38.7,29.86,SW,225,0.0,0.7,86,0.00,,,0.02,WUHU216HW,2013-03-17 16:35:00,
2013-03-17 12:40:00,42.7,38.7,29.86,SW,225,0.0,0.7,86,0.00,,,0.02,WUHU216HW,2013-03-17 16:40:00,
2013-03-17 12:45:00,42.5,38.3,29.86,SW,225,0.0,0.7,85,0.00,,,0.02,WUHU216HW,2013-03-17 16:45:00,
2013-03-17 12:50:00,42.3,38.1,29.86,SW,225,0.0,0.0,85,0.00,,,0.02,WUHU216HW,2013-03-17 16:50:00,
2013-03-17 12:55:00,42.1,37.9,29.86,SW,225,0.0,0.0,85,0.00,,,0.02,WUHU216HW,2013-03-17 16:55:00,
2013-03-17 13:00:00,41.9,38.0,29.86,SW,225,0.0,0.0,86,0.00,,,0.02,WUHU216HW,2013-03-17 17:00:00,
2013-03-17 13:05:00,41.9,38.0,29.86,SW,225,0.0,0.0,86,0.00,,,0.02,WUHU216HW,2013-03-17 17:05:00,
2013-03-17 13:10:00,41.9,38.0,29.86,SW,225,0.0,0.7,86,0.00,,,0.02,WUHU216HW,2013-03-17 17:10:00,
2013-03-17 13:15:00,41.8,37.8,29.86,SW,225,0.0,0.7,86,0.00,,,0.02,WUHU216HW,2013-03-17 17:15:00,
2013-03-17 13:20:00,41.8,37.8,29.86,SW,225,0.0,0.0,86,0.00,,,0.02,WUHU216HW,2013-03-17 17:20:00,
2013-03-17 13:25:00,41.6,37.6,29.86,SW,225,0.0,0.0,86,0.00,,,0.02,WUHU216HW,2013-03-17 17:25:00,
2013-03-17 13:30:00,41.6,37.6,29.86,SW,225,0.0,0.4,86,0.00,,,0.02,WUHU216HW,2013-03-17 17:30:00,
2013-03-17 13:35:00,41.6,37.6,29.86,SW,225,0.0,0.4,86,0.00,,,0.02,WUHU216HW,2013-03-17 17:35:00,
2013-03-17 13:40:00,41.6,37.6,29.85,SW,225,0.0,0.0,86,0.00,,,0.02,WUHU216HW,2013-03-17 17:40:00,
2013-03-17 13:45:00,41.6,37.6,29.86,SW,225,0.0,0.0,86,0.00,,,0.02,WUHU216HW,2013-03-17 17:45:00,
2013-03-17 13:50:00,41.6,37.6,29.86,SW,225,0.4,0.4,86,0.00,,,0.02,WUHU216HW,2013-03-17 17:50:00,
2013-03-17 13:55:00,41.4,37.4,29.85,SW,225,0.0,0.9,86,0.00,,,0.02,WUHU216HW,2013-03-17 17:55:00,
2013-03-17 14:00:00,41.4,37.4,29.86,SSW,203,0.0,0.9,86,0.00,,,0.02,WUHU216HW,2013-03-17 18:00:00,
2013-03-17 14:05:00,41.4,37.8,29.86,SSW,203,0.0,0.7,87,0.00,,,0.02,WUHU216HW,2013-03-17 18:05:00,
2013-03-17 14:10:00,41.4,37.8,29.86,SSW,203,0.0,0.4,87,0.00,,,0.02,WUHU216HW,2013-03-17 18:10:00,
2013-03-17 14:15:00,41.2,37.3,29.85,SSW,203,0.2,0.2,86,0.00,,,0.02,WUHU216HW,2013-03-17 18:15:00,
2013-03-17 14:20:00,41.2,37.3,29.85,SSW,203,0.0,0.2,86,0.00,,,0.02,WUHU216HW,2013-03-17 18:20:00,
2013-03-17 14:25:00,41.2,37.6,29.85,SSW,203,0.0,0.4,87,0.00,,,0.02,WUHU216HW,2013-03-17 18:25:00,
2013-03-17 14:30:00,41.4,37.8,29.85,SSW,203,0.0,1.1,87,0.00,,,0.02,WUHU216HW,2013-03-17 18:30:00,
2013-03-17 14:35:00,41.4,37.8,29.85,SSW,203,0.4,1.1,87,0.00,,,0.02,WUHU216HW,2013-03-17 18:35:00,
2013-03-17 14:40:00,41.4,37.4,29.84,SSE,158,0.7,1.6,86,0.00,,,0.02,WUHU216HW,2013-03-17 18:40:00,
2013-03-17 14:45:00,41.2,37.6,29.85,SW,225,0.4,1.6,87,0.00,,,0.02,WUHU216HW,2013-03-17 18:45:00,
2013-03-17 14:50:00,41.2,37.3,29.85,SSE,158,0.0,1.6,86,0.00,,,0.02,WUHU216HW,2013-03-17 18:50:00,
2013-03-17 14:55:00,41.2,37.3,29.85,SSE,158,0.0,1.1,86,0.00,,,0.02,WUHU216HW,2013-03-17 18:55:00,
2013-03-17 15:01:00,41.2,37.3,29.85,WNW,293,0.4,0.7,86,0.00,,,0.02,WUHU216HW,2013-03-17 19:01:00,
2013-03-17 15:06:00,41.4,37.4,29.84,West,270,0.0,0.7,86,0.00,,,0.02,WUHU216HW,2013-03-17 19:06:00,
2013-03-17 15:10:00,41.4,37.4,29.84,SE,135,0.0,0.4,86,0.00,,,0.02,WUHU216HW,2013-03-17 19:10:00,
2013-03-17 15:15:00,41.4,37.4,29.84,SE,135,0.0,0.2,86,0.00,,,0.02,WUHU216HW,2013-03-17 19:15:00,
2013-03-17 15:21:00,41.6,37.6,29.84,NW,315,0.0,0.9,86,0.00,,,0.02,WUHU216HW,2013-03-17 19:21:00,
2013-03-17 15:26:00,41.6,37.6,29.84,West,270,0.0,0.9,86,0.00,,,0.02,WUHU216HW,2013-03-17 19:26:00,
2013-03-17 15:31:00,41.4,37.4,29.84,West,270,0.0,0.0,86,0.00,,,0.02,WUHU216HW,2013-03-17 19:31:00,
2013-03-17 15:36:00,41.6,37.6,29.84,North,0,0.0,0.9,86,0.00,,,0.02,WUHU216HW,2013-03-17 19:36:00,
2013-03-17 15:41:00,41.6,37.6,29.84,SE,135,0.2,0.9,86,0.00,,,0.02,WUHU216HW,2013-03-17 19:41:00,
2013-03-17 15:46:00,41.6,37.6,29.84,NE,45,0.0,0.7,86,0.00,,,0.02,WUHU216HW,2013-03-17 19:46:00,
2013-03-17 15:51:00,41.4,37.4,29.84,SE,135,0.4,0.7,86,0.00,,,0.02,WUHU216HW,2013-03-17 19:51:00,
2013-03-17 15:56:00,41.4,37.4,29.84,WNW,293,0.0,0.4,86,0.00,,,0.02,WUHU216HW,2013-03-17 19:56:00,
2013-03-17 16:01:00,41.4,37.4,29.84,NE,45,0.4,0.4,86,0.00,,,0.02,WUHU216HW,2013-03-17 20:01:00,
2013-03-17 16:06:00,41.4,37.4,29.84,NNE,23,0.0,1.1,86,0.00,,,0.02,WUHU216HW,2013-03-17 20:06:00,
2013-03-17 16:11:00,41.4,37.4,29.84,NNE,23,0.2,1.1,86,0.00,,,0.02,WUHU216HW,2013-03-17 20:11:00,
2013-03-17 16:16:00,41.4,37.4,29.84,NE,45,0.2,0.9,86,0.00,,,0.02,WUHU216HW,2013-03-17 20:16:00,
2013-03-17 16:21:00,41.4,37.4,29.84,North,0,0.0,1.1,86,0.00,,,0.02,WUHU216HW,2013-03-17 20:21:00,
2013-03-17 16:25:00,41.2,37.3,29.84,West,270,0.9,1.1,86,0.00,,,0.02,WUHU216HW,2013-03-17 20:25:00,
2013-03-17 16:30:00,41.0,37.1,29.84,NNE,23,0.4,1.6,86,0.00,,,0.02,WUHU216HW,2013-03-17 20:30:00,
2013-03-17 16:35:00,41.0,37.1,29.84,SSE,158,0.2,1.6,86,0.00,,,0.02,WUHU216HW,2013-03-17 20:35:00,
2013-03-17 16:40:00,41.0,37.1,29.84,SSE,158,0.0,0.9,86,0.00,,,0.02,WUHU216HW,2013-03-17 20:40:00,
2013-03-17 16:45:00,40.9,36.9,29.84,SSE,158,0.0,0.4,86,0.00,,,0.02,WUHU216HW,2013-03-17 20:45:00,
2013-03-17 16:51:00,40.9,36.9,29.85,NNW,338,0.4,1.6,86,0.00,,,0.02,WUHU216HW,2013-03-17 20:51:00,
2013-03-17 16:56:00,40.9,36.9,29.85,NNW,338,0.2,1.6,86,0.00,,,0.02,WUHU216HW,2013-03-17 20:56:00,
2013-03-17 17:01:00,40.9,36.9,29.85,NE,45,0.0,1.1,86,0.00,,,0.02,WUHU216HW,2013-03-17 21:01:00,
2013-03-17 17:06:00,40.7,36.8,29.86,NNW,338,0.4,1.1,86,0.00,,,0.02,WUHU216HW,2013-03-17 21:06:00,
2013-03-17 17:11:00,40.7,36.8,29.86,North,0,0.0,1.1,86,0.00,,,0.02,WUHU216HW,2013-03-17 21:11:00,
2013-03-17 17:16:00,40.5,36.6,29.85,NNE,23,0.0,0.4,86,0.00,,,0.02,WUHU216HW,2013-03-17 21:16:00,
2013-03-17 17:21:00,40.3,36.5,29.85,North,0,0.0,0.4,86,0.00,,,0.02,WUHU216HW,2013-03-17 21:21:00,
2013-03-17 17:26:00,40.3,36.5,29.86,WNW,293,0.4,0.7,86,0.00,,,0.02,WUHU216HW,2013-03-17 21:26:00,
2013-03-17 17:31:00,40.3,36.5,29.86,NNE,23,0.0,0.7,86,0.00,,,0.02,WUHU216HW,2013-03-17 21:31:00,
2013-03-17 17:36:00,40.1,36.5,29.85,West,270,0.4,0.9,87,0.00,,,0.02,WUHU216HW,2013-03-17 21:36:00,
2013-03-17 17:41:00,40.0,36.4,29.85,NE,45,0.4,0.9,87,0.00,,,0.02,WUHU216HW,2013-03-17 21:41:00,
2013-03-17 17:46:00,40.0,36.4,29.86,NW,315,0.4,0.9,87,0.00,,,0.02,WUHU216HW,2013-03-17 21:46:00,
2013-03-17 17:51:00,40.0,36.4,29.86,NNW,338,0.2,0.9,87,0.00,,,0.02,WUHU216HW,2013-03-17 21:51:00,
2013-03-17 17:56:00,40.0,36.4,29.86,NNE,23,0.0,0.9,87,0.00,,,0.02,WUHU216HW,2013-03-17 21:56:00,
2013-03-17 18:01:00,40.0,36.4,29.86,WNW,293,0.0,0.7,87,0.00,,,0.02,WUHU216HW,2013-03-17 22:01:00,
2013-03-17 18:06:00,40.0,36.4,29.86,NNE,23,0.2,2.9,87,0.00,,,0.02,WUHU216HW,2013-03-17 22:06:00,
2013-03-17 18:11:00,39.8,36.2,29.86,NE,45,1.1,2.9,87,0.00,,,0.02,WUHU216HW,2013-03-17 22:11:00,
2013-03-17 18:16:00,39.8,36.2,29.87,North,0,0.2,1.6,87,0.00,,,0.02,WUHU216HW,2013-03-17 22:16:00,
2013-03-17 18:21:00,39.6,36.0,29.87,North,0,0.4,1.6,87,0.00,,,0.02,WUHU216HW,2013-03-17 22:21:00,
2013-03-17 18:26:00,39.4,35.8,29.87,North,0,0.0,1.1,87,0.00,,,0.02,WUHU216HW,2013-03-17 22:26:00,
2013-03-17 18:31:00,39.2,35.6,29.88,NNW,338,0.2,1.1,87,0.00,,,0.02,WUHU216HW,2013-03-17 22:31:00,
2013-03-17 18:36:00,39.2,35.6,29.87,NE,45,0.0,1.1,87,0.00,,,0.02,WUHU216HW,2013-03-17 22:36:00,
2013-03-17 18:42:00,39.1,35.5,29.87,North,0,0.0,1.1,87,0.00,,,0.02,WUHU216HW,2013-03-17 22:42:00,
2013-03-17 18:47:00,39.1,35.5,29.87,North,0,0.0,0.9,87,0.00,,,0.02,WUHU216HW,2013-03-17 22:47:00,
2013-03-17 18:52:00,38.9,35.3,29.88,NW,315,1.3,1.3,87,0.00,,,0.02,WUHU216HW,2013-03-17 22:52:00,
2013-03-17 18:57:00,38.9,35.3,29.87,NNW,338,0.2,1.8,87,0.00,,,0.02,WUHU216HW,2013-03-17 22:57:00,
2013-03-17 19:02:00,38.9,35.3,29.88,NW,315,0.4,1.8,87,0.00,,,0.02,WUHU216HW,2013-03-17 23:02:00,
2013-03-17 19:07:00,38.7,35.1,29.88,NW,315,0.7,1.3,87,0.00,,,0.02,WUHU216HW,2013-03-17 23:07:00,
2013-03-17 19:12:00,38.5,34.9,29.88,WNW,293,0.0,1.3,87,0.00,,,0.02,WUHU216HW,2013-03-17 23:12:00,
2013-03-17 19:17:00,38.5,34.9,29.89,West,270,0.0,0.9,87,0.00,,,0.02,WUHU216HW,2013-03-17 23:17:00,
2013-03-17 19:22:00,38.5,34.9,29.88,West,270,0.0,0.4,87,0.00,,,0.02,WUHU216HW,2013-03-17 23:22:00,
2013-03-17 19:27:00,38.3,34.7,29.89,NW,315,0.4,0.7,87,0.00,,,0.02,WUHU216HW,2013-03-17 23:27:00,
2013-03-17 19:32:00,38.2,34.6,29.88,NNW,338,0.0,1.1,87,0.00,,,0.02,WUHU216HW,2013-03-17 23:32:00,
2013-03-17 19:37:00,38.0,34.4,29.89,WNW,293,0.0,1.1,87,0.00,,,0.02,WUHU216HW,2013-03-17 23:37:00,
2013-03-17 19:42:00,37.8,34.2,29.88,NW,315,0.0,0.9,87,0.00,,,0.02,WUHU216HW,2013-03-17 23:42:00,
2013-03-17 19:47:00,37.8,34.2,29.88,NW,315,0.4,0.9,87,0.00,,,0.02,WUHU216HW,2013-03-17 23:47:00,
2013-03-17 19:52:00,37.8,34.6,29.88,NW,315,0.4,0.9,88,0.00,,,0.02,WUHU216HW,2013-03-17 23:52:00,
2013-03-17 19:57:00,37.6,34.4,29.88,NW,315,0.0,0.9,88,0.00,,,0.02,WUHU216HW,2013-03-17 23:57:00,
2013-03-17 20:03:00,37.4,34.2,29.89,NNW,338,0.0,1.1,88,0.01,,,0.03,WUHU216HW,2013-03-18 00:03:00,
2013-03-17 20:08:00,37.4,33.8,29.88,NNE,23,0.4,1.1,87,0.01,,,0.03,WUHU216HW,2013-03-18 00:08:00,
2013-03-17 20:13:00,37.3,33.7,29.89,West,270,0.0,0.4,87,0.01,,,0.03,WUHU216HW,2013-03-18 00:13:00,
2013-03-17 20:18:00,37.1,33.9,29.87,SSE,158,0.7,1.1,88,0.01,,,0.03,WUHU216HW,2013-03-18 00:18:00,
2013-03-17 20:23:00,37.1,33.9,29.89,ENE,68,0.0,2.7,88,0.01,,,0.03,WUHU216HW,2013-03-18 00:23:00,
2013-03-17 20:28:00,37.1,33.9,29.89,North,0,0.2,2.7,88,0.01,,,0.03,WUHU216HW,2013-03-18 00:28:00,
2013-03-17 20:33:00,37.1,33.9,29.89,North,0,0.0,1.1,88,0.01,,,0.03,WUHU216HW,2013-03-18 00:33:00,
2013-03-17 20:38:00,37.1,33.9,29.89,North,0,0.0,0.2,88,0.01,,,0.03,WUHU216HW,2013-03-18 00:38:00,
2013-03-17 20:43:00,36.9,33.7,29.89,SW,225,0.0,0.2,88,0.01,,,0.03,WUHU216HW,2013-03-18 00:43:00,
2013-03-17 20:48:00,36.9,33.7,29.89,SW,225,0.0,0.2,88,0.01,,,0.03,WUHU216HW,2013-03-18 00:48:00,
2013-03-17 20:53:00,36.7,33.5,29.89,SSW,203,0.4,0.7,88,0.01,,,0.03,WUHU216HW,2013-03-18 00:53:00,
2013-03-17 20:58:00,36.7,33.5,29.89,NNW,338,0.0,0.7,88,0.00,,,0.03,WUHU216HW,2013-03-18 00:58:00,
2013-03-17 21:03:00,36.7,33.8,29.89,WNW,293,0.0,0.7,89,0.01,,,0.04,WUHU216HW,2013-03-18 01:03:00,
2013-03-17 21:08:00,36.7,33.8,29.89,North,0,0.2,0.7,89,0.01,,,0.04,WUHU216HW,2013-03-18 01:08:00,
2013-03-17 21:13:00,36.5,33.6,29.90,ENE,68,0.2,0.4,89,0.01,,,0.04,WUHU216HW,2013-03-18 01:13:00,
2013-03-17 21:18:00,36.7,33.8,29.90,NW,315,0.0,0.9,89,0.01,,,0.04,WUHU216HW,2013-03-18 01:18:00,
2013-03-17 21:23:00,36.5,33.6,29.90,NE,45,0.0,0.9,89,0.01,,,0.04,WUHU216HW,2013-03-18 01:23:00,
2013-03-17 21:28:00,36.5,33.6,29.91,NNW,338,0.0,1.1,89,0.01,,,0.04,WUHU216HW,2013-03-18 01:28:00,
2013-03-17 21:33:00,36.5,33.6,29.91,West,270,0.0,1.1,89,0.01,,,0.04,WUHU216HW,2013-03-18 01:33:00,
2013-03-17 21:38:00,36.5,33.6,29.92,West,270,0.4,0.4,89,0.01,,,0.04,WUHU216HW,2013-03-18 01:38:00,
2013-03-17 21:43:00,36.5,33.6,29.92,NW,315,0.0,0.4,89,0.01,,,0.04,WUHU216HW,2013-03-18 01:43:00,
2013-03-17 21:48:00,36.5,33.6,29.92,NW,315,0.0,0.4,89,0.01,,,0.04,WUHU216HW,2013-03-18 01:48:00,
2013-03-17 21:53:00,36.4,33.4,29.92,SSE,158,0.0,0.0,89,0.01,,,0.04,WUHU216HW,2013-03-18 01:53:00,
2013-03-17 21:58:00,36.5,33.6,29.92,SSW,203,0.0,0.0,89,0.01,,,0.04,WUHU216HW,2013-03-18 01:58:00,
2013-03-17 22:03:00,36.5,33.6,29.91,ESE,113,0.0,0.4,89,0.00,,,0.04,WUHU216HW,2013-03-18 02:03:00,
2013-03-17 22:08:00,36.4,33.4,29.91,North,0,0.0,0.7,89,0.00,,,0.04,WUHU216HW,2013-03-18 02:08:00,
2013-03-17 22:13:00,36.4,33.4,29.91,NNW,338,0.0,0.7,89,0.00,,,0.04,WUHU216HW,2013-03-18 02:13:00,
2013-03-17 22:18:00,36.4,33.4,29.91,SE,135,0.2,0.4,89,0.00,,,0.04,WUHU216HW,2013-03-18 02:18:00,
2013-03-17 22:23:00,36.4,33.4,29.92,NNE,23,0.2,0.4,89,0.00,,,0.04,WUHU216HW,2013-03-18 02:23:00,
2013-03-17 22:28:00,36.4,33.4,29.91,SSW,203,0.0,0.7,89,0.00,,,0.04,WUHU216HW,2013-03-18 02:28:00,
2013-03-17 22:33:00,36.4,33.4,29.92,SSW,203,0.0,0.7,89,0.00,,,0.04,WUHU216HW,2013-03-18 02:33:00,
2013-03-17 22:38:00,36.4,33.4,29.92,SSW,203,0.0,0.0,89,0.00,,,0.04,WUHU216HW,2013-03-18 02:38:00,
2013-03-17 22:43:00,36.2,33.2,29.91,WSW,248,0.2,0.2,89,0.00,,,0.04,WUHU216HW,2013-03-18 02:43:00,
2013-03-17 22:48:00,36.0,33.0,29.91,ENE,68,0.0,0.4,89,0.00,,,0.04,WUHU216HW,2013-03-18 02:48:00,
2013-03-17 22:53:00,36.0,33.0,29.91,SW,225,0.0,0.4,89,0.00,,,0.04,WUHU216HW,2013-03-18 02:53:00,
2013-03-17 22:58:00,35.8,32.9,29.91,SW,225,0.0,0.2,89,0.00,,,0.04,WUHU216HW,2013-03-18 02:58:00,
2013-03-17 23:03:00,35.8,32.9,29.91,NW,315,0.0,1.1,89,0.00,,,0.04,WUHU216HW,2013-03-18 03:03:00,
2013-03-17 23:08:00,35.8,32.9,29.91,WNW,293,0.0,1.1,89,0.01,,,0.05,WUHU216HW,2013-03-18 03:08:00,
2013-03-17 23:13:00,35.8,32.9,29.91,West,270,0.4,0.4,89,0.01,,,0.05,WUHU216HW,2013-03-18 03:13:00,
2013-03-17 23:18:00,35.8,32.9,29.91,West,270,0.0,0.4,89,0.01,,,0.05,WUHU216HW,2013-03-18 03:18:00,
2013-03-17 23:23:00,35.8,32.9,29.91,WSW,248,0.0,0.4,89,0.01,,,0.05,WUHU216HW,2013-03-18 03:23:00,
2013-03-17 23:28:00,35.8,32.9,29.91,WSW,248,0.0,0.4,89,0.01,,,0.05,WUHU216HW,2013-03-18 03:28:00,
2013-03-17 23:33:00,35.8,33.1,29.91,WSW,248,0.0,1.1,90,0.01,,,0.05,WUHU216HW,2013-03-18 03:33:00,
2013-03-17 23:38:00,36.0,33.0,29.91,WSW,248,0.0,1.1,89,0.01,,,0.05,WUHU216HW,2013-03-18 03:38:00,
2013-03-17 23:43:00,35.8,32.9,29.91,WSW,248,0.0,0.0,89,0.01,,,0.05,WUHU216HW,2013-03-18 03:43:00,
2013-03-17 23:48:00,35.8,33.1,29.91,WSW,248,0.0,0.4,90,0.01,,,0.05,WUHU216HW,2013-03-18 03:48:00,
2013-03-17 23:53:00,36.0,33.0,29.91,WSW,248,0.0,0.4,89,0.01,,,0.05,WUHU216HW,2013-03-18 03:53:00,
2013-03-17 23:58:00,35.8,32.9,29.91,WSW,248,0.0,0.0,89,0.01,,,0.05,WUHU216HW,2013-03-18 03:58:00,